Weather History for Sheldon, IA

Change the Weather History Date:

Friday, April 5, 2013

  Actual Average Record
Temperature  
Mean Temperature 44 °F -  
Max Temperature 57 °F 53 °F 86 °F (1991)
Min Temperature 30 °F 29 °F 15 °F (1968)
Degree Days  
Heating Degree Days 22    
Moisture  
Dew Point 29 °F    
Average Humidity 64    
Maximum Humidity 86    
Minimum Humidity 38    
Precipitation  
Precipitation 0.00 in - - ()
Sea Level Pressure  
Sea Level Pressure 29.99 in    
Wind  
Wind Speed 15 mph (ESE)    
Max Wind Speed 30 mph    
Max Gust Speed 38 mph    
Visibility 10 miles    
Events      
Averages and records for this station are not official NWS values.
T = Trace of Precipitation, MM = Missing Value Source: NWS Daily Summary

Daily Weather History Graph

Daily Weather History Graph

Search for Another Location

Airport:

Trip Planner

Search our weather history database for the weather conditions in past years. The results will help you decide how hot, cold, wet, or windy it might be!

Date:

Astronomy

Apr. 05, 2013 Rise Set
Actual Time 6:57 AM CDT 7:54 PM CDT
Civil Twilight 6:28 AM CDT 8:23 PM CDT
Nautical Twilight 5:54 AM CDT 8:58 PM CDT
Astronomical Twilight 5:18 AM CDT 9:34 PM CDT
Moon 4:13 AM CDT (4/5) 3:13 PM CDT (4/5)
Length of Visible Light 13h 55m
Length of Day
12h 57m
Waning Crescent, 23% of the Moon is Illuminated
Apr 5
Waning Crescent
Apr 10
New
Apr 18
First Quarter
Apr 25
Full
May 2
Last Quarter

Hourly Weather History & Observations

Time (CDT) Temp. Windchill Dew Point Humidity Pressure Visibility Wind Dir Wind Speed Gust Speed Precip Events Conditions
12:15 AM 32.0 °F 21.6 °F 26.6 °F 80% 30.17 in 10.0 mi NNE 15.0 mph - N/A   Overcast
12:35 AM 32.0 °F 22.1 °F 26.6 °F 80% 30.16 in 10.0 mi NNE 13.8 mph - N/A   Overcast
12:55 AM 32.0 °F 23.0 °F 26.6 °F 80% 30.17 in 10.0 mi NNE 11.5 mph - N/A   Overcast
1:15 AM 32.0 °F 22.1 °F 24.8 °F 75% 30.17 in 10.0 mi NNE 13.8 mph - N/A   Overcast
1:35 AM 30.2 °F 20.8 °F 24.8 °F 80% 30.17 in - NNE 11.5 mph - N/A   Overcast
1:55 AM 30.2 °F 20.2 °F 24.8 °F 80% 30.17 in 10.0 mi NE 12.7 mph - N/A   Overcast
2:15 AM 30.2 °F 20.8 °F 24.8 °F 80% 30.17 in 10.0 mi NE 11.5 mph - N/A   Overcast
2:35 AM 30.2 °F 21.3 °F 24.8 °F 80% 30.17 in 10.0 mi NE 10.4 mph 16.1 mph N/A   Overcast
2:55 AM 30.2 °F 21.9 °F 24.8 °F 80% 30.17 in 10.0 mi NE 9.2 mph - N/A   Overcast
3:15 AM 30.2 °F 20.2 °F 24.8 °F 80% 30.17 in 10.0 mi NE 12.7 mph - N/A   Overcast
3:35 AM 30.2 °F 20.2 °F 24.8 °F 80% 30.17 in 10.0 mi NE 12.7 mph - N/A   Overcast
3:55 AM 30.2 °F 22.6 °F 24.8 °F 80% 30.17 in 10.0 mi NE 8.1 mph - N/A   Overcast
4:15 AM 30.2 °F 19.3 °F 24.8 °F 80% 30.15 in 10.0 mi ENE 15.0 mph - N/A   Overcast
4:35 AM 30.2 °F 20.8 °F 24.8 °F 80% 30.16 in 10.0 mi ENE 11.5 mph - N/A   Overcast
4:55 AM 30.2 °F 20.2 °F 24.8 °F 80% 30.15 in 10.0 mi ENE 12.7 mph - N/A   Overcast
5:15 AM 30.2 °F 20.8 °F 24.8 °F 80% 30.16 in 10.0 mi ENE 11.5 mph - N/A   Overcast
5:35 AM 30.2 °F 21.3 °F 24.8 °F 80% 30.16 in 10.0 mi ENE 10.4 mph 17.3 mph N/A   Overcast
5:55 AM 30.2 °F 21.3 °F 24.8 °F 80% 30.16 in 10.0 mi East 10.4 mph - N/A   Mostly Cloudy
6:15 AM 30.2 °F 21.3 °F 24.8 °F 80% 30.17 in 10.0 mi East 10.4 mph - N/A   Mostly Cloudy
6:35 AM 30.2 °F 21.9 °F 24.8 °F 80% 30.16 in 10.0 mi East 9.2 mph - N/A   Overcast
6:55 AM 30.2 °F 21.3 °F 26.6 °F 86% 30.16 in 10.0 mi East 10.4 mph - N/A   Mostly Cloudy
7:15 AM 30.2 °F 21.9 °F 26.6 °F 86% 30.16 in 10.0 mi East 9.2 mph - N/A   Overcast
7:35 AM 30.2 °F 21.3 °F 26.6 °F 86% 30.16 in 10.0 mi East 10.4 mph - N/A   Mostly Cloudy
7:55 AM 30.2 °F 21.9 °F 26.6 °F 86% 30.16 in 10.0 mi East 9.2 mph - N/A   Clear
8:15 AM 32.0 °F 22.1 °F 26.6 °F 80% 30.15 in 10.0 mi East 13.8 mph - N/A   Partly Cloudy
8:35 AM 32.0 °F 22.5 °F 26.6 °F 80% 30.17 in 10.0 mi East 12.7 mph - N/A   Partly Cloudy
8:55 AM 33.8 °F 24.8 °F 26.6 °F 75% 30.16 in 10.0 mi SE 12.7 mph - N/A   Clear
9:15 AM 33.8 °F 24.3 °F 26.6 °F 75% 30.15 in 10.0 mi ESE 13.8 mph - N/A   Mostly Cloudy
9:35 AM 33.8 °F 23.5 °F 26.6 °F 75% 30.14 in 10.0 mi ESE 16.1 mph - N/A   Mostly Cloudy
9:55 AM 35.6 °F 26.6 °F 26.6 °F 70% 30.14 in 10.0 mi ESE 13.8 mph - N/A   Partly Cloudy
10:15 AM 35.6 °F 25.9 °F 26.6 °F 70% 30.12 in 10.0 mi ESE 16.1 mph - N/A   Clear
10:35 AM 37.4 °F 28.5 °F 26.6 °F 65% 30.12 in 10.0 mi SE 15.0 mph - N/A   Scattered Clouds
10:55 AM 39.2 °F 29.8 °F 26.6 °F 61% 30.10 in 10.0 mi SE 18.4 mph - N/A   Partly Cloudy
11:15 AM 39.2 °F 29.3 °F 26.6 °F 61% 30.08 in 10.0 mi SE 20.7 mph 26.5 mph N/A   Partly Cloudy
11:35 AM 41.0 °F 31.6 °F 26.6 °F 57% 30.07 in 10.0 mi SE 20.7 mph - N/A   Clear
11:55 AM 41.0 °F 32.2 °F 26.6 °F 57% 30.06 in 10.0 mi SE 18.4 mph 27.6 mph N/A   Scattered Clouds
12:15 PM 41.0 °F 32.2 °F 28.4 °F 61% 30.06 in 10.0 mi SE 18.4 mph 28.8 mph N/A   Partly Cloudy
12:35 PM 42.8 °F 34.3 °F 28.4 °F 57% 30.06 in 10.0 mi SE 19.6 mph - N/A   Partly Cloudy
12:55 PM 42.8 °F 33.8 °F 28.4 °F 57% 30.04 in 10.0 mi SE 21.9 mph - N/A   Clear
1:15 PM 42.8 °F 34.5 °F 28.4 °F 57% 30.04 in - SE 18.4 mph 27.6 mph N/A   Clear
1:35 PM 44.6 °F 36.4 °F 28.4 °F 53% 30.02 in 10.0 mi SE 20.7 mph - N/A   Clear
1:55 PM 46.4 °F 38.5 °F 28.4 °F 50% 30.00 in 10.0 mi SE 21.9 mph 28.8 mph N/A   Partly Cloudy
2:15 PM 46.4 °F 38.5 °F 30.2 °F 53% 29.97 in 10.0 mi ESE 21.9 mph 29.9 mph N/A   Clear
2:35 PM 48.2 °F - 30.2 °F 50% 29.95 in 10.0 mi SE 23.0 mph 29.9 mph N/A   Clear
2:55 PM 50.0 °F - 28.4 °F 43% 29.93 in 10.0 mi SE 24.2 mph 32.2 mph N/A   Partly Cloudy
3:15 PM 50.0 °F - 28.4 °F 43% 29.91 in 10.0 mi SE 24.2 mph 31.1 mph N/A   Scattered Clouds
3:35 PM 50.0 °F - 30.2 °F 47% 29.90 in 10.0 mi SE 19.6 mph 27.6 mph N/A   Partly Cloudy
3:55 PM 51.8 °F - 30.2 °F 44% 29.89 in 10.0 mi SE 25.3 mph 31.1 mph N/A   Partly Cloudy
4:15 PM 51.8 °F - 30.2 °F 44% 29.87 in 10.0 mi SE 29.9 mph 36.8 mph N/A   Clear
4:35 PM 53.6 °F - 30.2 °F 41% 29.84 in 10.0 mi SE 29.9 mph 38.0 mph N/A   Clear
4:55 PM 53.6 °F - 32.0 °F 44% 29.83 in 10.0 mi SE 26.5 mph 32.2 mph N/A   Clear
5:15 PM 55.4 °F - 32.0 °F 41% 29.83 in 10.0 mi SE 24.2 mph 34.5 mph N/A   Clear
5:35 PM 57.2 °F - 32.0 °F 38% 29.82 in 10.0 mi SE 23.0 mph 31.1 mph N/A   Clear
5:55 PM 57.2 °F - 32.0 °F 38% 29.82 in 10.0 mi SE 23.0 mph 29.9 mph N/A   Clear
6:15 PM 55.4 °F - 32.0 °F 41% 29.80 in 10.0 mi SE 24.2 mph 29.9 mph N/A   Clear
6:35 PM 53.6 °F - 33.8 °F 47% 29.79 in 10.0 mi SE 19.6 mph 28.8 mph N/A   Clear
6:55 PM 53.6 °F - 33.8 °F 47% 29.78 in 10.0 mi SE 19.6 mph 27.6 mph N/A   Clear
7:15 PM 53.6 °F - 33.8 °F 47% 29.77 in 10.0 mi SE 18.4 mph - N/A   Clear
7:35 PM 51.8 °F - 33.8 °F 50% 29.76 in 10.0 mi SE 18.4 mph - N/A   Clear
7:55 PM 51.8 °F - 35.6 °F 54% 29.75 in 10.0 mi SE 16.1 mph - N/A   Clear
8:15 PM 51.8 °F - 35.6 °F 54% 29.74 in 10.0 mi SE 20.7 mph - N/A   Partly Cloudy
8:35 PM 51.8 °F - 35.6 °F 54% 29.74 in 10.0 mi SE 16.1 mph 26.5 mph N/A   Clear
8:55 PM 50.0 °F - 35.6 °F 58% 29.73 in 10.0 mi SE 19.6 mph - N/A   Clear
9:15 PM 50.0 °F - 35.6 °F 58% 29.72 in 10.0 mi SE 20.7 mph - N/A   Partly Cloudy
9:35 PM 50.0 °F - 35.6 °F 58% 29.72 in 10.0 mi SE 18.4 mph 26.5 mph N/A   Clear
9:55 PM 50.0 °F - 35.6 °F 58% 29.72 in 10.0 mi SE 20.7 mph 27.6 mph N/A   Scattered Clouds
10:15 PM 50.0 °F - 35.6 °F 58% 29.72 in 10.0 mi SE 20.7 mph - N/A   Mostly Cloudy
10:35 PM 50.0 °F - 35.6 °F 58% 29.71 in 10.0 mi SE 19.6 mph - N/A   Overcast
10:55 PM 50.0 °F - 37.4 °F 62% 29.70 in 10.0 mi SE 18.4 mph - N/A   Overcast
11:15 PM 50.0 °F - 37.4 °F 62% 29.69 in 10.0 mi SE 19.6 mph - N/A   Mostly Cloudy
11:35 PM 50.0 °F - 37.4 °F 62% 29.69 in 10.0 mi SE 18.4 mph - N/A   Mostly Cloudy
11:55 PM 50.0 °F - 39.2 °F 66% 29.68 in 10.0 mi SE 18.4 mph 24.2 mph N/A   Mostly Cloudy